Weather Roundup
Issued by NWS Chicago, IL

Home | Current Version | Previous Version | Graphics & Text | Print | Product List | Glossary On
Versions: 1 2 3 4 5 6 7 8 9 10 11 12 13 14 15 16 17 18 19 20 21 22 23 24 25 26 27 28 29 30 31 32 33 34 35 36 37 38 39 40 41 42 43 44 45 46 47 48 49 50
000
NZUS59 KLOT 261208
HRRLOT

CHICAGO AREA WEATHER ROUNDUP
NATIONAL WEATHER SERVICE CHICAGO/ROMEOVILLE IL
700 AM CDT MON SEP 26 2016

NOTE: "FAIR" INDICATES FEW OR NO CLOUDS BELOW 12,000 FEET WITH NO
SIGNIFICANT WEATHER AND/OR OBSTRUCTIONS TO VISIBILITY.

* THESE STATIONS ARE NOT UNDER NWS QUALITY CONTROL. THEY ALSO MAY NOT
  REPORT WEATHER SUCH AS PRECIPITATION OR FOG.

ILZ005-006-012>014-019>023-261300-
NORTHEAST ILLINOIS

CITY           SKY/WX    TMP DP  RH WIND       PRES   REMARKS
OHARE          CLOUDY    59  50  72 W13       29.99R
6HR MIN TEMP:  59; 6HR MAX TEMP:  63; 6HR PCP: TRACE;

MIDWAY         CLOUDY    61  49  64 W8        30.00R
6HR MIN TEMP:  60; 6HR MAX TEMP:  67; 6HR PCP:  0.02;

AURORA         CLOUDY    58  50  75 W9        30.02R
6HR MIN TEMP:  58; 6HR MAX TEMP:  63;

LANSING*       CLOUDY    58  54  86 W6        30.01R
JOLIET*        CLOUDY    60  53  78 W9        30.02S
WAUKEGAN       CLOUDY    58  49  72 VRB5      29.96R
6HR MIN TEMP:  58; 6HR MAX TEMP:  63;

DUPAGE AIRPORT CLOUDY    58  49  72 W12       30.00R
6HR MIN TEMP:  58; 6HR MAX TEMP:  62; 6HR PCP: TRACE;

WHEELING       CLOUDY    59  49  69 W10       29.99R
6HR MIN TEMP:  59; 6HR MAX TEMP:  63; 6HR PCP: TRACE;

KANKAKEE*      CLOUDY    57  54  88 SW5       30.04S
MORRIS*        CLOUDY    58  51  78 W8        30.03R
LEWIS AIRPORT* CLOUDY    57  54  88 W8        30.01F
NORTHERLY ISL    N/A     61  49  64 W10         N/A
$$

WIZ051-052-058>065-066-070>072-261300-
SOUTHEAST WISCONSIN

CITY           SKY/WX    TMP DP  RH WIND       PRES   REMARKS
MILWAUKEE      CLOUDY    59  49  69 W14       29.94R
6HR MIN TEMP:  59; 6HR MAX TEMP:  64;

KENOSHA*       CLOUDY    56  50  80 W9        29.96R
RACINE*        CLOUDY    57  49  74 W8        29.96S
BURLINGTON     CLOUDY    53  47  82 SW8       29.96S
WAUKESHA       CLEAR     54  48  82 W9        29.95R
WEST BEND      CLOUDY    54  46  76 SW12      29.90F
$$

INZ001>003-010>013-019-020-261300-
NORTHWEST INDIANA

CITY           SKY/WX    TMP DP  RH WIND       PRES   REMARKS
GARY*          MOCLDY    61  54  77 W12       30.01S
MICHIGAN CITY* NOT AVBL
RENSSELAER*    NOT AVBL
VALPARAISO     CLOUDY    58  55  90 W9        30.00R
$$

LMZ740>746-261300-
SOUTHERN LAKE MICHIGAN

STATION/POSITION TIME  SKY/WX   TEMP WIND        PRES    VSBY
                                AIR  DIR/SP/G
                 (UTC)          (F)  (DEG/KT/KT) (MB)    (MI)
HARRISON CRIB    1100            62  270/ 15/ 18   N/A
BURNHAM HARBOR   1200            61  270/  8/ 13   N/A
CALUMET HARBOR   1100            61  270/  4/ 10 1015.1R
BURNS HARBOR     1100            63  290/ 17/ 23 1015.2S
MICHIGAN CITY    1100            62  280/ 17/ 20   N/A
$$

ABBREVIATIONS USED IN REMARKS
   TC - TEMPERATURE IN CELSIUS
  WCI - WIND CHILL INDEX
   HX - HEAT INDEX
  VSB - VISIBILITY
$$




USA.gov is the U.S. government's official web portal to all federal, state and local government web resources and services.